{"data":{"norad_id":52839,"intl_designator":"2022-062K","name":"STARLINK-4048","alt_names":[],"object_type":"PAYLOAD","status":"ACTIVE","operator":null,"country":"US","launch_date":"2022-06-17","launch_site_code":"AFETR","launch_vehicle":null,"mission":null,"orbit_class":"UNKNOWN","rcs_meters":null,"size_class":null,"mass_kg":null,"dimensions":null,"purposes":["comms"],"wikipedia_slug":null,"has_3d_model":false,"image_url":null,"decayed_at":null,"tle_current":{"epoch":"2026-05-25T02:43:58.361088Z","epoch_age_seconds":61681,"freshness":"FRESH","line1":"1 52839U 22062K   26145.11386992  .00000540  00000+0  52019-4 0  9995","line2":"2 52839  53.2123  51.0400 0001396  96.9690 263.1461 15.08835073217321","mean_motion":15.08835073,"eccentricity":0.0001396,"inclination_deg":53.2123,"raan_deg":51.04,"arg_perigee_deg":96.969,"mean_anomaly_deg":263.1461,"bstar":5.2019e-5,"rev_number":21732,"period_min":95.437866322716,"perigee_km":538.79271066834,"apogee_km":540.72418707767,"semimajor_km":6917.895448873,"source":"CELESTRAK","updated_at":"2026-05-25T13:38:17.242365Z"}}}